Wetterdaten: Mittwoch, 10.02.2016
Datum Zeit Auen-Temp. Temp gefhlt Luftfeuchte Luftdruck Regen Wind Richtung Richtung Sonnenschein Taupunkt Windben
10.02.2016 00:00 1,7 C 0,6 C 82 % 994,3 hPa 0,0 mm 14,8 km/h (3 Bft) W-NW 292 0 min -1,0 C 12,4 km/h (3 Bft)
10.02.2016 00:05 1,7 C 0,6 C 82 % 994,3 hPa 0,0 mm 14,5 km/h (3 Bft) W-SW 247 0 min -1,0 C 16,8 km/h (3 Bft)
10.02.2016 00:10 1,9 C 0,8 C 79 % 994,3 hPa 0,0 mm 17,1 km/h (3 Bft) NW 315 0 min -1,3 C 29,3 km/h (5 Bft)
10.02.2016 00:15 1,9 C 0,8 C 79 % 994,3 hPa 0,0 mm 18,1 km/h (3 Bft) W-SW 247 0 min -1,3 C 41,4 km/h (6 Bft)
10.02.2016 00:20 2,0 C 1,0 C 78 % 994,3 hPa 0,0 mm 19,7 km/h (3 Bft) W-SW 247 0 min -1,4 C 21,0 km/h (4 Bft)
10.02.2016 00:25 1,8 C 0,8 C 78 % 994,9 hPa 0,0 mm 22,5 km/h (4 Bft) W 270 0 min -1,6 C 32,1 km/h (5 Bft)
10.02.2016 00:30 1,5 C 0,4 C 80 % 994,9 hPa 0,0 mm 23,8 km/h (4 Bft) W 270 0 min -1,6 C 22,3 km/h (4 Bft)
10.02.2016 00:35 1,5 C 0,3 C 80 % 994,9 hPa 0,0 mm 21,2 km/h (4 Bft) W-NW 292 0 min -1,6 C 49,7 km/h (6 Bft)
10.02.2016 00:40 1,6 C 0,4 C 78 % 994,9 hPa 0,0 mm 18,4 km/h (3 Bft) SW 225 0 min -1,8 C 12,4 km/h (3 Bft)
10.02.2016 00:45 1,5 C 0,4 C 75 % 995,1 hPa 0,0 mm 20,7 km/h (4 Bft) W 270 0 min -2,4 C 44,0 km/h (6 Bft)
10.02.2016 00:50 1,4 C 0,3 C 73 % 995,1 hPa 0,0 mm 25,4 km/h (4 Bft) W 270 0 min -2,9 C 29,3 km/h (5 Bft)
10.02.2016 00:55 1,3 C 0,1 C 70 % 995,1 hPa 0,0 mm 29,3 km/h (5 Bft) NW 315 0 min -3,6 C 76,1 km/h (9 Bft)
10.02.2016 01:00 1,1 C -0,1 C 69 % 995,1 hPa 0,0 mm 28,7 km/h (4 Bft) W-NW 292 0 min -3,9 C 29,8 km/h (5 Bft)
10.02.2016 01:05 0,7 C -0,4 C 75 % 995,2 hPa 0,0 mm 27,2 km/h (4 Bft) S-SO 157 0 min -3,2 C 48,2 km/h (6 Bft)
10.02.2016 01:10 0,3 C -1,2 C 78 % 995,2 hPa 0,0 mm 23,0 km/h (4 Bft) S-SW 202 0 min -3,1 C 23,0 km/h (4 Bft)
10.02.2016 01:15 0,3 C -0,8 C 79 % 995,2 hPa 0,0 mm 22,0 km/h (4 Bft) W-NW 292 0 min -2,9 C 36,3 km/h (5 Bft)
10.02.2016 01:20 0,4 C -0,8 C 78 % 995,2 hPa 0,0 mm 22,0 km/h (4 Bft) SW 225 0 min -3,0 C 20,5 km/h (4 Bft)
10.02.2016 01:25 0,5 C -0,7 C 77 % 995,1 hPa 0,0 mm 20,7 km/h (4 Bft) W-SW 247 0 min -3,1 C 27,7 km/h (4 Bft)
10.02.2016 01:30 0,6 C -1,0 C 76 % 995,1 hPa 0,0 mm 20,7 km/h (4 Bft) SW 225 0 min -3,1 C 22,3 km/h (4 Bft)
10.02.2016 01:35 0,6 C -0,6 C 75 % 995,1 hPa 0,0 mm 21,8 km/h (4 Bft) W-NW 292 0 min -3,3 C 22,5 km/h (4 Bft)
10.02.2016 01:40 0,7 C -0,5 C 73 % 995,1 hPa 0,0 mm 22,3 km/h (4 Bft) W-NW 292 0 min -3,6 C 38,6 km/h (5 Bft)
10.02.2016 01:42 0,7 C 0,0 C 73 % 995,1 hPa 0,0 mm 25,6 km/h (4 Bft) W-NW 292 0 min -3,6 C 44,4 km/h (6 Bft)
10.02.2016 01:45 0,7 C -0,5 C 72 % 995,4 hPa 0,0 mm 24,1 km/h (4 Bft) W-NW 292 0 min -3,8 C 24,7 km/h (4 Bft)
10.02.2016 01:50 0,7 C -0,4 C 71 % 995,4 hPa 0,0 mm 24,7 km/h (4 Bft) S 180 0 min -3,9 C 23,8 km/h (4 Bft)
10.02.2016 01:55 0,7 C -0,4 C 71 % 995,4 hPa 0,0 mm 25,3 km/h (4 Bft) W 270 0 min -3,9 C 31,3 km/h (5 Bft)
10.02.2016 02:00 0,8 C -0,4 C 69 % 995,4 hPa 0,0 mm 29,2 km/h (5 Bft) NW 315 0 min -4,2 C 48,6 km/h (6 Bft)
10.02.2016 02:05 0,8 C -0,4 C 69 % 996,0 hPa 0,0 mm 31,9 km/h (5 Bft) W-SW 247 0 min -4,2 C 37,3 km/h (5 Bft)
10.02.2016 02:10 0,7 C -0,5 C 68 % 996,0 hPa 0,0 mm 28,0 km/h (4 Bft) W-NW 292 0 min -4,5 C 43,2 km/h (6 Bft)
10.02.2016 02:15 0,8 C -0,3 C 68 % 996,0 hPa 0,0 mm 26,5 km/h (4 Bft) W 270 0 min -4,4 C 20,9 km/h (4 Bft)
10.02.2016 02:20 0,7 C -0,8 C 67 % 996,0 hPa 0,0 mm 24,7 km/h (4 Bft) SW 225 0 min -4,7 C 23,5 km/h (4 Bft)
10.02.2016 02:25 0,7 C -0,3 C 67 % 995,8 hPa 0,0 mm 22,7 km/h (4 Bft) SW 225 0 min -4,7 C 37,3 km/h (5 Bft)
10.02.2016 02:30 0,8 C -0,3 C 67 % 995,8 hPa 0,0 mm 26,5 km/h (4 Bft) W-SW 247 0 min -4,6 C 28,0 km/h (4 Bft)
10.02.2016 02:35 0,7 C -0,9 C 66 % 995,8 hPa 0,0 mm 26,8 km/h (4 Bft) W-SW 247 0 min -4,9 C 20,6 km/h (4 Bft)
10.02.2016 02:38 0,7 C 0,0 C 66 % 995,8 hPa 0,0 mm 26,8 km/h (4 Bft) W-SW 247 0 min -4,9 C 20,6 km/h (4 Bft)
10.02.2016 02:40 0,8 C -0,3 C 66 % 995,8 hPa 0,0 mm 25,0 km/h (4 Bft) W 270 0 min -4,8 C 32,2 km/h (5 Bft)
10.02.2016 02:45 0,8 C -0,3 C 66 % 995,9 hPa 0,0 mm 24,4 km/h (4 Bft) NW 315 0 min -4,8 C 31,9 km/h (5 Bft)
10.02.2016 02:50 0,8 C -0,3 C 66 % 995,9 hPa 0,0 mm 25,0 km/h (4 Bft) W 270 0 min -4,8 C 24,4 km/h (4 Bft)
10.02.2016 02:55 0,7 C -0,3 C 66 % 995,9 hPa 0,0 mm 22,7 km/h (4 Bft) W-SW 247 0 min -4,9 C 14,9 km/h (3 Bft)
10.02.2016 03:00 0,7 C -0,2 C 66 % 995,9 hPa 0,0 mm 16,7 km/h (3 Bft) W 270 0 min -4,9 C 25,0 km/h (4 Bft)
10.02.2016 03:05 0,7 C -0,1 C 66 % 996,2 hPa 0,0 mm 16,1 km/h (3 Bft) W 270 0 min -4,9 C 26,2 km/h (4 Bft)
10.02.2016 03:10 0,7 C -0,1 C 66 % 996,2 hPa 0,0 mm 16,7 km/h (3 Bft) W 270 0 min -4,9 C 26,2 km/h (4 Bft)
10.02.2016 03:15 0,7 C -0,1 C 66 % 996,2 hPa 0,0 mm 16,4 km/h (3 Bft) W-SW 247 0 min -4,9 C 15,5 km/h (3 Bft)
10.02.2016 03:20 0,6 C -0,3 C 66 % 996,2 hPa 0,0 mm 13,1 km/h (3 Bft) W 270 0 min -5,0 C 21,2 km/h (4 Bft)
10.02.2016 03:25 0,7 C -0,3 C 66 % 996,4 hPa 0,0 mm 13,4 km/h (3 Bft) W-SW 247 0 min -4,9 C 8,9 km/h (2 Bft)
10.02.2016 03:30 0,8 C 0,0 C 66 % 996,4 hPa 0,0 mm 17,0 km/h (3 Bft) W 270 0 min -4,8 C 12,2 km/h (2 Bft)
10.02.2016 03:35 0,8 C 0,0 C 65 % 996,4 hPa 0,0 mm 15,2 km/h (3 Bft) W-SW 247 0 min -5,0 C 8,3 km/h (2 Bft)
10.02.2016 03:40 0,7 C -0,2 C 65 % 996,4 hPa 0,0 mm 12,5 km/h (3 Bft) W-SW 247 0 min -5,1 C 10,7 km/h (2 Bft)
10.02.2016 03:45 0,7 C 0,0 C 67 % 996,6 hPa 0,0 mm 14,9 km/h (3 Bft) NW 315 0 min -4,7 C 24,1 km/h (4 Bft)
10.02.2016 03:50 0,5 C -0,3 C 67 % 996,6 hPa 0,0 mm 16,7 km/h (3 Bft) SW 225 0 min -4,9 C 8,6 km/h (2 Bft)
10.02.2016 03:55 0,4 C -0,7 C 68 % 996,6 hPa 0,0 mm 14,0 km/h (3 Bft) N 360 0 min -4,8 C 10,4 km/h (2 Bft)
10.02.2016 04:00 0,5 C -0,5 C 68 % 996,6 hPa 0,0 mm 13,1 km/h (3 Bft) N-NW 337 0 min -4,7 C 15,8 km/h (3 Bft)
10.02.2016 04:05 0,6 C -0,2 C 67 % 996,6 hPa 0,0 mm 15,8 km/h (3 Bft) W 270 0 min -4,8 C 20,6 km/h (4 Bft)
10.02.2016 04:10 0,7 C -0,2 C 66 % 996,6 hPa 0,0 mm 18,8 km/h (3 Bft) W 270 0 min -4,9 C 22,7 km/h (4 Bft)
10.02.2016 04:15 0,7 C -0,2 C 66 % 996,6 hPa 0,0 mm 19,4 km/h (3 Bft) W-NW 292 0 min -4,9 C 17,0 km/h (3 Bft)
10.02.2016 04:20 0,7 C -0,2 C 66 % 996,6 hPa 0,0 mm 17,6 km/h (3 Bft) SW 225 0 min -4,9 C 20,3 km/h (4 Bft)
10.02.2016 04:25 0,6 C -0,3 C 66 % 996,7 hPa 0,0 mm 18,8 km/h (3 Bft) W-NW 292 0 min -5,0 C 34,9 km/h (5 Bft)
10.02.2016 04:30 0,6 C -0,3 C 66 % 996,7 hPa 0,0 mm 20,9 km/h (4 Bft) W 270 0 min -5,0 C 44,4 km/h (6 Bft)
10.02.2016 04:35 0,6 C -0,8 C 66 % 996,7 hPa 0,0 mm 20,9 km/h (4 Bft) W 270 0 min -5,0 C 17,6 km/h (3 Bft)
10.02.2016 04:40 0,6 C -0,3 C 66 % 996,7 hPa 0,0 mm 19,1 km/h (3 Bft) W-SW 247 0 min -5,0 C 15,2 km/h (3 Bft)
10.02.2016 04:45 0,5 C -0,3 C 66 % 996,8 hPa 0,0 mm 15,5 km/h (3 Bft) NO 45 0 min -5,1 C 26,5 km/h (4 Bft)
10.02.2016 04:50 0,4 C -0,6 C 67 % 996,8 hPa 0,0 mm 13,4 km/h (3 Bft) W-SW 247 0 min -5,0 C 20,3 km/h (4 Bft)
10.02.2016 04:55 0,3 C -0,6 C 68 % 996,8 hPa 0,0 mm 11,0 km/h (2 Bft) NW 315 0 min -4,9 C 9,8 km/h (2 Bft)
10.02.2016 05:00 0,2 C -0,6 C 69 % 996,8 hPa 0,0 mm 10,4 km/h (2 Bft) W-SW 247 0 min -4,8 C 7,2 km/h (2 Bft)
10.02.2016 05:05 0,2 C -0,7 C 69 % 996,8 hPa 0,0 mm 10,1 km/h (2 Bft) W-SW 247 0 min -4,8 C 9,8 km/h (2 Bft)
10.02.2016 05:07 0,2 C -0,7 C 69 % 996,8 hPa 0,0 mm 10,1 km/h (2 Bft) W-SW 247 0 min -4,8 C 9,8 km/h (2 Bft)
10.02.2016 05:10 0,2 C -0,6 C 69 % 996,8 hPa 0,0 mm 8,9 km/h (2 Bft) W-SW 247 0 min -4,8 C 8,0 km/h (2 Bft)
10.02.2016 05:14 0,2 C -0,6 C 69 % 996,8 hPa 0,0 mm 9,8 km/h (2 Bft) S-SW 202 0 min -4,8 C 7,2 km/h (2 Bft)
10.02.2016 05:15 0,2 C -0,6 C 69 % 996,8 hPa 0,0 mm 9,8 km/h (2 Bft) S-SW 202 0 min -4,8 C 7,2 km/h (2 Bft)
10.02.2016 05:20 0,1 C -0,7 C 70 % 996,8 hPa 0,0 mm 9,8 km/h (2 Bft) W 270 0 min -4,7 C 15,2 km/h (3 Bft)
10.02.2016 05:25 0,0 C -0,9 C 72 % 996,6 hPa 0,0 mm 11,9 km/h (2 Bft) W-SW 247 0 min -4,4 C 25,6 km/h (4 Bft)
10.02.2016 05:30 -0,3 C -1,3 C 74 % 996,6 hPa 0,0 mm 14,0 km/h (3 Bft) W-SW 247 0 min -4,4 C 17,0 km/h (3 Bft)
10.02.2016 05:35 -0,5 C -1,5 C 75 % 996,6 hPa 0,0 mm 12,8 km/h (3 Bft) W-SW 247 0 min -4,4 C 15,5 km/h (3 Bft)
10.02.2016 05:40 -0,7 C -1,5 C 78 % 996,6 hPa 0,0 mm 14,6 km/h (3 Bft) W-SW 247 0 min -4,0 C 13,7 km/h (3 Bft)
10.02.2016 05:45 -0,8 C -1,6 C 78 % 997,0 hPa 0,0 mm 14,9 km/h (3 Bft) SW 225 0 min -4,1 C 20,6 km/h (4 Bft)
10.02.2016 05:50 -0,9 C -1,7 C 73 % 997,0 hPa 0,0 mm 10,7 km/h (2 Bft) W 270 0 min -5,1 C 11,9 km/h (2 Bft)
10.02.2016 05:55 -1,0 C -1,7 C 73 % 997,0 hPa 0,0 mm 8,9 km/h (2 Bft) W-NW 292 0 min -5,2 C 12,8 km/h (3 Bft)
10.02.2016 06:00 -1,0 C -1,7 C 74 % 997,0 hPa 0,0 mm 9,5 km/h (2 Bft) W-SW 247 0 min -5,0 C 18,8 km/h (3 Bft)
10.02.2016 06:05 -1,0 C -1,7 C 74 % 996,6 hPa 0,0 mm 9,2 km/h (2 Bft) W 270 0 min -5,0 C 10,7 km/h (2 Bft)
10.02.2016 06:10 -1,1 C -1,9 C 81 % 996,6 hPa 0,0 mm 9,2 km/h (2 Bft) W-SW 247 0 min -3,9 C 12,8 km/h (3 Bft)
10.02.2016 06:15 -1,1 C -1,9 C 81 % 996,6 hPa 0,0 mm 8,9 km/h (2 Bft) W-NW 292 0 min -3,9 C 8,0 km/h (2 Bft)
10.02.2016 06:20 -1,2 C -1,9 C 75 % 996,6 hPa 0,0 mm 9,2 km/h (2 Bft) W-SW 247 0 min -5,0 C 8,0 km/h (2 Bft)
10.02.2016 06:25 -1,2 C -1,9 C 76 % 996,9 hPa 0,0 mm 9,2 km/h (2 Bft) W-NW 292 0 min -4,9 C 8,6 km/h (2 Bft)
10.02.2016 06:30 -1,2 C -1,9 C 82 % 996,9 hPa 0,0 mm 8,6 km/h (2 Bft) W 270 0 min -3,9 C 6,0 km/h (2 Bft)
10.02.2016 06:33 -1,2 C -1,9 C 82 % 996,9 hPa 0,0 mm 8,6 km/h (2 Bft) W 270 0 min -3,9 C 6,0 km/h (2 Bft)
10.02.2016 06:35 -1,4 C -1,9 C 76 % 996,9 hPa 0,0 mm 8,3 km/h (2 Bft) N 360 0 min -5,1 C 6,6 km/h (2 Bft)
10.02.2016 06:40 -1,4 C -1,9 C 76 % 996,9 hPa 0,0 mm 8,3 km/h (2 Bft) N 360 0 min -5,1 C 6,6 km/h (2 Bft)
10.02.2016 06:45 -1,4 C -2,2 C 77 % 996,9 hPa 0,0 mm 10,7 km/h (2 Bft) NW 315 0 min -4,9 C 25,3 km/h (4 Bft)
10.02.2016 06:50 -1,4 C -2,2 C 77 % 996,9 hPa 0,0 mm 10,7 km/h (2 Bft) NW 315 0 min -4,9 C 25,3 km/h (4 Bft)
10.02.2016 06:51 -1,4 C -2,3 C 78 % 997,1 hPa 0,0 mm 12,8 km/h (3 Bft) SW 225 0 min -4,7 C 8,9 km/h (2 Bft)
10.02.2016 06:55 -1,4 C -2,3 C 78 % 997,1 hPa 0,0 mm 12,8 km/h (3 Bft) SW 225 0 min -4,7 C 8,9 km/h (2 Bft)
10.02.2016 07:03 -1,4 C -2,0 C 78 % 997,1 hPa 0,0 mm 14,9 km/h (3 Bft) W 270 0 min -4,7 C 30,4 km/h (5 Bft)
10.02.2016 07:04 -1,4 C -2,4 C 78 % 997,1 hPa 0,0 mm 14,9 km/h (3 Bft) W 270 0 min -4,7 C 30,4 km/h (5 Bft)
10.02.2016 07:10 -1,4 C -2,4 C 78 % 997,1 hPa 0,0 mm 14,9 km/h (3 Bft) W 270 0 min -4,7 C 30,4 km/h (5 Bft)
10.02.2016 07:20 -1,2 C -2,3 C 79 % 997,3 hPa 0,0 mm 14,6 km/h (3 Bft) W 270 0 min -4,4 C 22,7 km/h (4 Bft)
10.02.2016 07:30 -1,1 C -2,2 C 79 % 997,3 hPa 0,0 mm 13,4 km/h (3 Bft) SW 225 0 min -4,3 C 21,2 km/h (4 Bft)
10.02.2016 07:31 -1,1 C -2,2 C 79 % 997,4 hPa 0,0 mm 14,0 km/h (3 Bft) S 180 0 min -4,3 C 29,8 km/h (5 Bft)
10.02.2016 07:37 -1,1 C -2,2 C 79 % 997,4 hPa 0,0 mm 14,0 km/h (3 Bft) S 180 0 min -4,3 C 29,8 km/h (5 Bft)
10.02.2016 07:40 -1,1 C -2,2 C 79 % 997,4 hPa 0,0 mm 14,0 km/h (3 Bft) S 180 0 min -4,3 C 29,8 km/h (5 Bft)
10.02.2016 07:50 -1,0 C -1,8 C 79 % 997,4 hPa 0,0 mm 14,3 km/h (3 Bft) W-SW 247 0 min -4,2 C 19,1 km/h (3 Bft)
10.02.2016 08:00 -0,9 C -1,6 C 79 % 997,7 hPa 0,0 mm 15,5 km/h (3 Bft) NW 315 0 min -4,1 C 23,2 km/h (4 Bft)
10.02.2016 08:10 -0,9 C -2,0 C 79 % 997,7 hPa 0,0 mm 15,5 km/h (3 Bft) W 270 0 min -4,1 C 12,5 km/h (3 Bft)
10.02.2016 08:20 -0,9 C -1,5 C 79 % 997,9 hPa 0,0 mm 14,9 km/h (3 Bft) W-SW 247 0 min -4,1 C 24,1 km/h (4 Bft)
10.02.2016 08:30 -0,9 C -1,6 C 79 % 997,9 hPa 0,0 mm 16,4 km/h (3 Bft) SW 225 0 min -4,1 C 20,6 km/h (4 Bft)
10.02.2016 08:40 -0,9 C -1,5 C 79 % 998,1 hPa 0,0 mm 14,3 km/h (3 Bft) W 270 0 min -4,1 C 27,4 km/h (4 Bft)
10.02.2016 08:50 -0,9 C -1,7 C 79 % 998,1 hPa 0,0 mm 13,4 km/h (3 Bft) W 270 0 min -4,1 C 13,7 km/h (3 Bft)
10.02.2016 09:00 -0,9 C -1,3 C 79 % 998,3 hPa 0,0 mm 14,6 km/h (3 Bft) W-NW 292 0 min -4,1 C 28,0 km/h (4 Bft)
10.02.2016 09:10 -0,9 C -1,2 C 79 % 998,3 hPa 0,0 mm 14,9 km/h (3 Bft) W-SW 247 0 min -4,1 C 16,4 km/h (3 Bft)
10.02.2016 09:20 -0,9 C -1,2 C 79 % 998,5 hPa 0,0 mm 14,3 km/h (3 Bft) W 270 0 min -4,1 C 19,4 km/h (3 Bft)
10.02.2016 09:30 -0,9 C -1,3 C 80 % 998,5 hPa 0,0 mm 13,7 km/h (3 Bft) W-SW 247 0 min -3,9 C 18,5 km/h (3 Bft)
10.02.2016 09:40 -0,7 C -1,1 C 80 % 998,7 hPa 0,0 mm 13,7 km/h (3 Bft) W 270 0 min -3,7 C 19,4 km/h (3 Bft)
10.02.2016 09:50 -0,7 C -0,7 C 80 % 998,7 hPa 0,0 mm 14,3 km/h (3 Bft) NW 315 0 min -3,7 C 19,4 km/h (3 Bft)
10.02.2016 10:00 -0,6 C -0,6 C 81 % 998,9 hPa 0,0 mm 15,2 km/h (3 Bft) W-NW 292 0 min -3,4 C 20,0 km/h (4 Bft)
10.02.2016 10:10 -0,6 C -0,2 C 81 % 998,9 hPa 0,0 mm 14,9 km/h (3 Bft) W 270 0 min -3,4 C 27,7 km/h (4 Bft)
10.02.2016 10:20 -0,5 C -0,2 C 81 % 999,0 hPa 0,0 mm 14,0 km/h (3 Bft) W 270 0 min -3,3 C 14,9 km/h (3 Bft)
10.02.2016 10:30 -0,5 C -0,5 C 81 % 999,0 hPa 0,0 mm 14,0 km/h (3 Bft) W 270 0 min -3,3 C 19,7 km/h (3 Bft)
10.02.2016 10:40 -0,3 C 0,1 C 81 % 999,2 hPa 0,0 mm 12,8 km/h (3 Bft) W-SW 247 0 min -3,2 C 13,4 km/h (3 Bft)
10.02.2016 10:50 -0,3 C 0,4 C 81 % 999,2 hPa 0,0 mm 14,3 km/h (3 Bft) W 270 0 min -3,2 C 21,5 km/h (4 Bft)
10.02.2016 11:00 -0,3 C 0,3 C 81 % 999,4 hPa 0,0 mm 17,0 km/h (3 Bft) W 270 0 min -3,2 C 17,6 km/h (3 Bft)
10.02.2016 11:01 -0,2 C 0,3 C 80 % 999,4 hPa 0,0 mm 19,7 km/h (3 Bft) W-SW 247 0 min -3,2 C 16,1 km/h (3 Bft)
10.02.2016 11:08 -0,2 C -0,1 C 80 % 999,4 hPa 0,0 mm 19,7 km/h (3 Bft) W-SW 247 0 min -3,2 C 16,1 km/h (3 Bft)
10.02.2016 11:10 -0,2 C -0,1 C 80 % 999,4 hPa 0,0 mm 19,7 km/h (3 Bft) W-SW 247 0 min -3,2 C 16,1 km/h (3 Bft)
10.02.2016 11:20 0,0 C 0,6 C 80 % 999,9 hPa 0,0 mm 18,5 km/h (3 Bft) SW 225 0 min -3,0 C 35,8 km/h (5 Bft)
10.02.2016 11:30 -0,1 C 0,6 C 79 % 999,9 hPa 0,0 mm 17,9 km/h (3 Bft) W 270 0 min -3,3 C 28,6 km/h (4 Bft)
10.02.2016 11:40 -0,1 C 0,6 C 79 % 1000,2 hPa 0,0 mm 15,8 km/h (3 Bft) SW 225 0 min -3,3 C 25,6 km/h (4 Bft)
10.02.2016 11:41 -0,1 C 0,8 C 79 % 1000,2 hPa 0,0 mm 15,8 km/h (3 Bft) SW 225 0 min -3,3 C 25,6 km/h (4 Bft)
10.02.2016 11:50 0,0 C 0,5 C 78 % 1000,2 hPa 0,0 mm 19,7 km/h (3 Bft) S-SO 157 0 min -3,4 C 29,5 km/h (5 Bft)
10.02.2016 12:00 0,2 C 1,0 C 77 % 1000,3 hPa 0,7 mm 19,1 km/h (3 Bft) W 270 0 min -3,3 C 17,0 km/h (3 Bft)
10.02.2016 12:10 0,4 C 1,4 C 76 % 1000,3 hPa 0,0 mm 18,2 km/h (3 Bft) W-NW 292 0 min -3,3 C 37,6 km/h (5 Bft)
10.02.2016 12:20 0,5 C 1,4 C 75 % 1000,2 hPa 0,0 mm 18,8 km/h (3 Bft) W-SW 247 0 min -3,4 C 29,5 km/h (5 Bft)
10.02.2016 12:30 0,5 C 1,4 C 74 % 1000,2 hPa 0,0 mm 19,7 km/h (3 Bft) W 270 0 min -3,6 C 42,0 km/h (6 Bft)
10.02.2016 12:40 0,6 C 1,0 C 73 % 1000,1 hPa 0,0 mm 19,4 km/h (3 Bft) W-SW 247 0 min -3,7 C 17,9 km/h (3 Bft)
10.02.2016 12:50 0,7 C 1,4 C 71 % 1000,1 hPa 0,0 mm 20,9 km/h (4 Bft) W 270 0 min -3,9 C 25,3 km/h (4 Bft)
10.02.2016 13:00 0,7 C 1,1 C 69 % 1000,3 hPa 0,0 mm 23,5 km/h (4 Bft) W 270 0 min -4,3 C 35,5 km/h (5 Bft)
10.02.2016 13:10 0,8 C 1,3 C 68 % 1000,3 hPa 0,0 mm 17,3 km/h (3 Bft) W-SW 247 0 min -4,4 C 15,2 km/h (3 Bft)
10.02.2016 13:11 0,8 C 1,4 C 68 % 1000,3 hPa 0,0 mm 17,3 km/h (3 Bft) W-SW 247 0 min -4,4 C 15,2 km/h (3 Bft)
10.02.2016 13:15 0,9 C 1,7 C 67 % 1000,5 hPa 0,0 mm 17,9 km/h (3 Bft) W 270 0 min -4,5 C 21,8 km/h (4 Bft)
10.02.2016 13:20 0,9 C 2,0 C 67 % 1000,5 hPa 0,0 mm 15,8 km/h (3 Bft) W-SW 247 0 min -4,5 C 19,4 km/h (3 Bft)
10.02.2016 13:25 1,0 C 2,2 C 66 % 1000,2 hPa 0,0 mm 13,1 km/h (3 Bft) W-SW 247 0 min -4,6 C 11,6 km/h (2 Bft)
10.02.2016 13:30 1,1 C 2,4 C 65 % 1000,2 hPa 0,0 mm 13,1 km/h (3 Bft) SW 225 0 min -4,7 C 14,3 km/h (3 Bft)
10.02.2016 13:35 1,2 C 2,7 C 64 % 1000,2 hPa 0,0 mm 13,4 km/h (3 Bft) W 270 0 min -4,8 C 17,6 km/h (3 Bft)
10.02.2016 13:40 1,2 C 3,4 C 63 % 1000,2 hPa 0,0 mm 15,2 km/h (3 Bft) W-SW 247 5 min -5,0 C 15,2 km/h (3 Bft)
10.02.2016 13:45 1,4 C 3,4 C 62 % 1000,5 hPa 0,0 mm 16,4 km/h (3 Bft) W 270 5 min -5,1 C 17,0 km/h (3 Bft)
10.02.2016 13:50 1,7 C 2,7 C 61 % 1000,5 hPa 0,0 mm 15,5 km/h (3 Bft) S 180 0 min -5,0 C 23,2 km/h (4 Bft)
10.02.2016 13:55 1,9 C 3,4 C 60 % 1000,5 hPa 0,0 mm 14,6 km/h (3 Bft) W 270 0 min -5,0 C 12,8 km/h (3 Bft)
10.02.2016 14:00 2,2 C 3,4 C 59 % 1000,5 hPa 0,0 mm 13,7 km/h (3 Bft) S-SW 202 0 min -5,0 C 11,9 km/h (2 Bft)
10.02.2016 14:05 2,3 C 4,1 C 59 % 1000,2 hPa 0,0 mm 14,0 km/h (3 Bft) W-SW 247 0 min -4,9 C 21,8 km/h (4 Bft)
10.02.2016 14:10 2,0 C 4,4 C 59 % 1000,2 hPa 0,0 mm 15,8 km/h (3 Bft) W-SW 247 5 min -5,2 C 17,0 km/h (3 Bft)
10.02.2016 14:15 2,4 C 3,9 C 59 % 1000,2 hPa 0,0 mm 15,5 km/h (3 Bft) N-NW 337 0 min -4,8 C 11,0 km/h (2 Bft)
10.02.2016 14:20 2,2 C 4,4 C 58 % 1000,2 hPa 0,0 mm 15,8 km/h (3 Bft) SW 225 5 min -5,2 C 19,4 km/h (3 Bft)
10.02.2016 14:25 1,9 C 3,5 C 59 % 1000,4 hPa 0,0 mm 15,2 km/h (3 Bft) O-NO 67 0 min -5,2 C 23,2 km/h (4 Bft)
10.02.2016 14:30 1,9 C 2,8 C 59 % 1000,4 hPa 0,0 mm 15,8 km/h (3 Bft) W 270 0 min -5,2 C 27,4 km/h (4 Bft)
10.02.2016 14:35 1,6 C 2,0 C 59 % 1000,4 hPa 0,0 mm 18,8 km/h (3 Bft) NW 315 0 min -5,5 C 21,8 km/h (4 Bft)
10.02.2016 14:40 1,4 C 1,6 C 59 % 1000,4 hPa 0,0 mm 20,3 km/h (4 Bft) W-NW 292 0 min -5,7 C 39,6 km/h (6 Bft)
10.02.2016 14:45 0,9 C 1,0 C 62 % 1000,6 hPa 0,0 mm 19,4 km/h (3 Bft) W-NW 292 0 min -5,5 C 24,1 km/h (4 Bft)
10.02.2016 14:50 0,7 C 0,4 C 64 % 1000,6 hPa 0,0 mm 18,2 km/h (3 Bft) W-SW 247 0 min -5,3 C 21,8 km/h (4 Bft)
10.02.2016 14:55 0,6 C 0,7 C 65 % 1000,6 hPa 0,0 mm 15,2 km/h (3 Bft) W 270 0 min -5,2 C 8,3 km/h (2 Bft)
10.02.2016 15:00 0,6 C 0,5 C 65 % 1000,6 hPa 0,0 mm 17,6 km/h (3 Bft) W 270 0 min -5,2 C 32,5 km/h (5 Bft)
10.02.2016 15:05 0,5 C 0,3 C 66 % 1000,5 hPa 0,0 mm 20,3 km/h (4 Bft) W-NW 292 0 min -5,1 C 34,6 km/h (5 Bft)
10.02.2016 15:10 0,4 C 0,1 C 67 % 1000,5 hPa 0,0 mm 19,7 km/h (3 Bft) W-SW 247 0 min -5,0 C 22,1 km/h (4 Bft)
10.02.2016 15:15 0,2 C 0,0 C 67 % 1000,5 hPa 0,0 mm 16,7 km/h (3 Bft) W 270 0 min -5,2 C 20,6 km/h (4 Bft)
10.02.2016 15:20 0,1 C -0,2 C 68 % 1000,5 hPa 0,0 mm 18,2 km/h (3 Bft) W 270 0 min -5,1 C 24,1 km/h (4 Bft)
10.02.2016 15:25 0,0 C -0,4 C 68 % 1000,7 hPa 0,0 mm 20,3 km/h (4 Bft) W 270 0 min -5,2 C 29,8 km/h (5 Bft)
10.02.2016 15:30 -0,1 C -0,9 C 70 % 1000,7 hPa 0,0 mm 18,5 km/h (3 Bft) W 270 0 min -4,9 C 16,1 km/h (3 Bft)
10.02.2016 15:35 -0,2 C -0,5 C 71 % 1000,7 hPa 0,0 mm 15,2 km/h (3 Bft) W-SW 247 0 min -4,8 C 10,1 km/h (2 Bft)
10.02.2016 15:40 -0,2 C -0,4 C 71 % 1000,7 hPa 0,0 mm 14,3 km/h (3 Bft) W 270 0 min -4,8 C 20,6 km/h (4 Bft)
10.02.2016 15:45 -0,2 C -0,4 C 71 % 1000,6 hPa 0,0 mm 16,4 km/h (3 Bft) W-NW 292 0 min -4,8 C 16,1 km/h (3 Bft)
10.02.2016 15:50 -0,2 C -0,7 C 71 % 1000,6 hPa 0,0 mm 18,5 km/h (3 Bft) W 270 0 min -4,8 C 50,7 km/h (7 Bft)
10.02.2016 15:55 -0,2 C -0,8 C 71 % 1000,6 hPa 0,0 mm 21,2 km/h (4 Bft) W 270 0 min -4,8 C 22,1 km/h (4 Bft)
10.02.2016 16:00 -0,1 C -0,8 C 71 % 1000,6 hPa 0,0 mm 20,3 km/h (4 Bft) W 270 0 min -4,7 C 31,3 km/h (5 Bft)
10.02.2016 16:05 -0,1 C -0,8 C 72 % 1000,6 hPa 0,0 mm 16,1 km/h (3 Bft) W 270 0 min -4,5 C 16,1 km/h (3 Bft)
10.02.2016 16:10 -0,2 C -0,7 C 71 % 1000,6 hPa 0,0 mm 17,3 km/h (3 Bft) W 270 0 min -4,8 C 23,2 km/h (4 Bft)
10.02.2016 16:15 -0,2 C -0,9 C 71 % 1000,6 hPa 0,0 mm 17,0 km/h (3 Bft) W-SW 247 0 min -4,8 C 27,1 km/h (4 Bft)
10.02.2016 16:20 -0,2 C -1,3 C 71 % 1000,6 hPa 0,0 mm 15,2 km/h (3 Bft) SW 225 0 min -4,8 C 13,1 km/h (3 Bft)
10.02.2016 16:25 -0,2 C -1,3 C 71 % 1000,7 hPa 0,0 mm 15,8 km/h (3 Bft) NW 315 0 min -4,8 C 21,8 km/h (4 Bft)
10.02.2016 16:30 -0,1 C -0,8 C 70 % 1000,7 hPa 0,0 mm 17,0 km/h (3 Bft) W-SW 247 0 min -4,9 C 22,7 km/h (4 Bft)
10.02.2016 16:35 0,0 C -0,7 C 70 % 1000,7 hPa 0,0 mm 17,9 km/h (3 Bft) W-SW 247 0 min -4,8 C 15,5 km/h (3 Bft)
10.02.2016 16:40 0,0 C -0,7 C 69 % 1000,7 hPa 0,0 mm 17,3 km/h (3 Bft) NW 315 0 min -5,0 C 20,6 km/h (4 Bft)
10.02.2016 16:45 0,1 C -0,7 C 69 % 1000,8 hPa 0,0 mm 17,6 km/h (3 Bft) W-SW 247 0 min -4,9 C 22,9 km/h (4 Bft)
10.02.2016 16:50 0,1 C -1,0 C 69 % 1000,8 hPa 0,0 mm 17,6 km/h (3 Bft) W-NW 292 0 min -4,9 C 24,4 km/h (4 Bft)
10.02.2016 16:55 0,0 C -0,8 C 69 % 1000,8 hPa 0,0 mm 18,5 km/h (3 Bft) SW 225 0 min -5,0 C 23,8 km/h (4 Bft)
10.02.2016 17:00 -0,1 C -1,0 C 69 % 1000,8 hPa 0,0 mm 18,8 km/h (3 Bft) O-NO 67 0 min -5,1 C 20,9 km/h (4 Bft)
10.02.2016 17:05 -0,1 C -1,0 C 69 % 1000,8 hPa 0,0 mm 18,2 km/h (3 Bft) W 270 0 min -5,1 C 25,9 km/h (4 Bft)
10.02.2016 17:07 -0,1 C -0,6 C 69 % 1000,8 hPa 0,0 mm 18,2 km/h (3 Bft) W 270 0 min -5,1 C 25,9 km/h (4 Bft)
10.02.2016 17:10 -0,1 C -1,0 C 69 % 1000,8 hPa 0,0 mm 18,2 km/h (3 Bft) W 270 0 min -5,1 C 21,8 km/h (4 Bft)
10.02.2016 17:12 0,0 C -0,5 C 68 % 1000,8 hPa 0,0 mm 18,5 km/h (3 Bft) W 270 0 min -5,2 C 14,6 km/h (3 Bft)
10.02.2016 17:14 0,0 C -1,4 C 68 % 1000,8 hPa 0,0 mm 18,5 km/h (3 Bft) W 270 0 min -5,2 C 14,6 km/h (3 Bft)
10.02.2016 17:15 0,0 C -1,4 C 68 % 1000,8 hPa 0,0 mm 18,5 km/h (3 Bft) W 270 0 min -5,2 C 14,6 km/h (3 Bft)
10.02.2016 17:20 0,0 C -1,0 C 67 % 1000,8 hPa 0,0 mm 19,7 km/h (3 Bft) W 270 0 min -5,4 C 28,0 km/h (4 Bft)
10.02.2016 17:25 0,0 C -1,4 C 67 % 1000,9 hPa 0,0 mm 20,0 km/h (4 Bft) W 270 0 min -5,4 C 28,0 km/h (4 Bft)
10.02.2016 17:30 0,1 C -0,9 C 66 % 1000,9 hPa 0,0 mm 19,4 km/h (3 Bft) W-NW 292 0 min -5,5 C 23,8 km/h (4 Bft)
10.02.2016 17:35 0,1 C -1,3 C 66 % 1000,9 hPa 0,0 mm 19,4 km/h (3 Bft) W-SW 247 0 min -5,5 C 34,6 km/h (5 Bft)
10.02.2016 17:37 0,1 C -0,5 C 66 % 1000,9 hPa 0,0 mm 20,6 km/h (4 Bft) W 270 0 min -5,5 C 27,1 km/h (4 Bft)
10.02.2016 17:39 0,1 C -1,3 C 66 % 1000,9 hPa 0,0 mm 20,6 km/h (4 Bft) W 270 0 min -5,5 C 27,1 km/h (4 Bft)
10.02.2016 17:40 0,1 C -1,3 C 66 % 1000,9 hPa 0,0 mm 20,6 km/h (4 Bft) W 270 0 min -5,5 C 27,1 km/h (4 Bft)
10.02.2016 17:45 0,1 C -0,9 C 65 % 1001,2 hPa 0,0 mm 18,8 km/h (3 Bft) W 270 0 min -5,7 C 24,7 km/h (4 Bft)
10.02.2016 17:50 0,3 C -0,8 C 65 % 1001,2 hPa 0,0 mm 19,4 km/h (3 Bft) W-SW 247 0 min -5,5 C 19,7 km/h (3 Bft)
10.02.2016 17:55 0,2 C -0,8 C 64 % 1001,2 hPa 0,0 mm 19,4 km/h (3 Bft) SW 225 0 min -5,8 C 24,4 km/h (4 Bft)
10.02.2016 18:00 0,2 C -0,8 C 64 % 1001,2 hPa 0,0 mm 18,2 km/h (3 Bft) W-NW 292 0 min -5,8 C 20,6 km/h (4 Bft)
10.02.2016 18:05 0,2 C -0,7 C 64 % 1001,2 hPa 0,0 mm 16,4 km/h (3 Bft) NW 315 0 min -5,8 C 26,8 km/h (4 Bft)
10.02.2016 18:07 0,3 C -0,2 C 63 % 1001,2 hPa 0,0 mm 17,3 km/h (3 Bft) W-SW 247 0 min -5,9 C 30,4 km/h (5 Bft)
10.02.2016 18:08 0,3 C -1,0 C 63 % 1001,2 hPa 0,0 mm 17,3 km/h (3 Bft) W-SW 247 0 min -5,9 C 30,4 km/h (5 Bft)
10.02.2016 18:10 0,3 C -1,0 C 63 % 1001,2 hPa 0,0 mm 17,3 km/h (3 Bft) W-SW 247 0 min -5,9 C 30,4 km/h (5 Bft)
10.02.2016 18:15 0,3 C -0,6 C 63 % 1001,2 hPa 0,0 mm 17,6 km/h (3 Bft) W 270 0 min -5,9 C 23,2 km/h (4 Bft)
10.02.2016 18:20 0,4 C -0,6 C 63 % 1001,2 hPa 0,0 mm 20,0 km/h (4 Bft) W-SW 247 0 min -5,8 C 25,6 km/h (4 Bft)
10.02.2016 18:25 0,4 C -1,0 C 63 % 1001,7 hPa 0,0 mm 20,3 km/h (4 Bft) W-NW 292 0 min -5,8 C 25,6 km/h (4 Bft)
10.02.2016 18:30 0,4 C -0,6 C 63 % 1001,7 hPa 0,0 mm 17,9 km/h (3 Bft) W 270 0 min -5,8 C 18,5 km/h (3 Bft)
10.02.2016 18:35 0,4 C -0,5 C 63 % 1001,7 hPa 0,0 mm 17,3 km/h (3 Bft) W-SW 247 0 min -5,8 C 11,6 km/h (2 Bft)
10.02.2016 18:40 0,3 C -0,9 C 63 % 1001,7 hPa 0,0 mm 17,6 km/h (3 Bft) W 270 0 min -5,9 C 17,9 km/h (3 Bft)
10.02.2016 18:45 0,3 C -0,6 C 63 % 1001,8 hPa 0,0 mm 16,1 km/h (3 Bft) W-NW 292 0 min -5,9 C 30,7 km/h (5 Bft)
10.02.2016 18:50 0,3 C -0,9 C 63 % 1001,8 hPa 0,0 mm 16,1 km/h (3 Bft) W 270 0 min -5,9 C 14,0 km/h (3 Bft)
10.02.2016 18:55 0,3 C -0,9 C 63 % 1001,8 hPa 0,0 mm 16,4 km/h (3 Bft) W-SW 247 0 min -5,9 C 18,5 km/h (3 Bft)
10.02.2016 19:00 0,4 C -0,8 C 63 % 1001,8 hPa 0,0 mm 16,1 km/h (3 Bft) NW 315 0 min -5,8 C 11,9 km/h (2 Bft)
10.02.2016 19:05 0,4 C -0,5 C 63 % 1001,8 hPa 0,0 mm 19,1 km/h (3 Bft) W-NW 292 0 min -5,8 C 31,0 km/h (5 Bft)
10.02.2016 19:10 0,3 C -0,6 C 63 % 1001,8 hPa 0,0 mm 18,8 km/h (3 Bft) W-SW 247 0 min -5,9 C 17,3 km/h (3 Bft)
10.02.2016 19:15 0,0 C -0,9 C 66 % 1001,8 hPa 0,0 mm 22,7 km/h (4 Bft) W 270 0 min -5,6 C 22,4 km/h (4 Bft)
10.02.2016 19:20 -0,1 C -1,1 C 66 % 1001,8 hPa 0,0 mm 22,4 km/h (4 Bft) W 270 0 min -5,7 C 34,9 km/h (5 Bft)
10.02.2016 19:25 -0,2 C -1,2 C 67 % 1002,2 hPa 0,0 mm 18,8 km/h (3 Bft) W-SW 247 0 min -5,6 C 28,6 km/h (4 Bft)
10.02.2016 19:30 -0,1 C -1,1 C 66 % 1002,2 hPa 0,0 mm 19,4 km/h (3 Bft) W-SW 247 0 min -5,7 C 25,3 km/h (4 Bft)
10.02.2016 19:35 0,0 C -1,1 C 65 % 1002,2 hPa 0,0 mm 19,1 km/h (3 Bft) S 180 0 min -5,8 C 17,0 km/h (3 Bft)
10.02.2016 19:40 0,0 C -1,0 C 65 % 1002,2 hPa 0,0 mm 17,9 km/h (3 Bft) S 180 0 min -5,8 C 16,4 km/h (3 Bft)
10.02.2016 19:45 0,0 C -0,9 C 65 % 1002,5 hPa 0,0 mm 17,0 km/h (3 Bft) W-SW 247 0 min -5,8 C 26,2 km/h (4 Bft)
10.02.2016 19:50 0,1 C -1,2 C 64 % 1002,5 hPa 0,0 mm 17,0 km/h (3 Bft) W 270 0 min -5,9 C 22,4 km/h (4 Bft)
10.02.2016 19:55 0,1 C -1,2 C 64 % 1002,5 hPa 0,0 mm 17,9 km/h (3 Bft) W 270 0 min -5,9 C 27,1 km/h (4 Bft)
10.02.2016 20:00 0,1 C -1,2 C 64 % 1002,5 hPa 0,0 mm 17,6 km/h (3 Bft) W-SW 247 0 min -5,9 C 28,3 km/h (4 Bft)
10.02.2016 20:05 0,1 C -0,8 C 64 % 1002,5 hPa 0,0 mm 17,3 km/h (3 Bft) W 270 0 min -5,9 C 22,4 km/h (4 Bft)
10.02.2016 20:10 0,0 C -1,2 C 63 % 1002,5 hPa 0,0 mm 17,0 km/h (3 Bft) W 270 0 min -6,2 C 17,0 km/h (3 Bft)
10.02.2016 20:15 0,0 C -0,9 C 63 % 1002,5 hPa 0,0 mm 15,2 km/h (3 Bft) W-SW 247 0 min -6,2 C 20,9 km/h (4 Bft)
10.02.2016 20:20 0,0 C -1,2 C 63 % 1002,5 hPa 0,0 mm 15,2 km/h (3 Bft) S-SW 202 0 min -6,2 C 19,4 km/h (3 Bft)
10.02.2016 20:25 0,0 C -0,9 C 63 % 1002,7 hPa 0,0 mm 17,6 km/h (3 Bft) W-NW 292 0 min -6,2 C 27,7 km/h (4 Bft)
10.02.2016 20:30 -0,1 C -1,0 C 63 % 1002,7 hPa 0,0 mm 15,8 km/h (3 Bft) W-SW 247 0 min -6,3 C 14,9 km/h (3 Bft)
10.02.2016 20:35 0,0 C -0,9 C 63 % 1002,7 hPa 0,0 mm 16,7 km/h (3 Bft) W-SW 247 0 min -6,2 C 20,9 km/h (4 Bft)
10.02.2016 20:40 0,0 C -1,0 C 63 % 1002,7 hPa 0,0 mm 18,8 km/h (3 Bft) NW 315 0 min -6,2 C 29,8 km/h (5 Bft)
10.02.2016 20:45 0,0 C -1,0 C 63 % 1003,1 hPa 0,0 mm 18,2 km/h (3 Bft) W-SW 247 0 min -6,2 C 13,1 km/h (3 Bft)
10.02.2016 20:50 0,0 C -0,9 C 63 % 1003,1 hPa 0,0 mm 17,3 km/h (3 Bft) SW 225 0 min -6,2 C 51,6 km/h (7 Bft)
10.02.2016 20:55 0,1 C -0,9 C 63 % 1003,1 hPa 0,0 mm 19,7 km/h (3 Bft) S 180 0 min -6,1 C 44,4 km/h (6 Bft)
10.02.2016 21:00 0,1 C -0,9 C 63 % 1003,1 hPa 0,0 mm 20,9 km/h (4 Bft) W-SW 247 0 min -6,1 C 25,3 km/h (4 Bft)
10.02.2016 21:05 0,1 C -0,9 C 63 % 1003,2 hPa 0,0 mm 17,3 km/h (3 Bft) W 270 0 min -6,1 C 18,2 km/h (3 Bft)
10.02.2016 21:10 0,2 C -0,7 C 62 % 1003,2 hPa 0,0 mm 16,4 km/h (3 Bft) NW 315 0 min -6,2 C 25,0 km/h (4 Bft)
10.02.2016 21:15 0,2 C -0,7 C 62 % 1003,2 hPa 0,0 mm 16,7 km/h (3 Bft) W 270 0 min -6,2 C 18,5 km/h (3 Bft)
10.02.2016 21:20 0,2 C -0,7 C 62 % 1003,2 hPa 0,0 mm 16,1 km/h (3 Bft) W 270 0 min -6,2 C 26,2 km/h (4 Bft)
10.02.2016 21:25 0,2 C -0,7 C 62 % 1003,4 hPa 0,0 mm 17,9 km/h (3 Bft) W-SW 247 0 min -6,2 C 22,9 km/h (4 Bft)
10.02.2016 21:30 0,2 C -1,1 C 61 % 1003,4 hPa 0,0 mm 17,9 km/h (3 Bft) W-SW 247 0 min -6,4 C 16,7 km/h (3 Bft)
10.02.2016 21:35 0,2 C -1,1 C 61 % 1003,4 hPa 0,0 mm 17,3 km/h (3 Bft) W 270 0 min -6,4 C 15,2 km/h (3 Bft)
10.02.2016 21:40 0,3 C -0,7 C 60 % 1003,4 hPa 0,0 mm 18,8 km/h (3 Bft) W-SW 247 0 min -6,5 C 15,8 km/h (3 Bft)
10.02.2016 21:45 0,3 C -0,7 C 59 % 1003,4 hPa 0,0 mm 16,7 km/h (3 Bft) W-SW 247 0 min -6,8 C 13,1 km/h (3 Bft)
10.02.2016 21:50 0,1 C -0,8 C 59 % 1003,4 hPa 0,0 mm 15,5 km/h (3 Bft) NW 315 0 min -6,9 C 21,2 km/h (4 Bft)
10.02.2016 21:55 0,2 C -0,7 C 59 % 1003,4 hPa 0,0 mm 16,1 km/h (3 Bft) SW 225 0 min -6,8 C 11,0 km/h (2 Bft)
10.02.2016 22:00 0,2 C -0,7 C 59 % 1003,4 hPa 0,0 mm 16,1 km/h (3 Bft) W-NW 292 0 min -6,8 C 26,2 km/h (4 Bft)
10.02.2016 22:05 0,3 C -0,8 C 59 % 1003,4 hPa 0,0 mm 13,7 km/h (3 Bft) SW 225 0 min -6,8 C 17,3 km/h (3 Bft)
10.02.2016 22:10 0,3 C -0,8 C 59 % 1003,4 hPa 0,0 mm 14,3 km/h (3 Bft) W 270 0 min -6,8 C 14,3 km/h (3 Bft)
10.02.2016 22:15 0,4 C -0,7 C 59 % 1003,4 hPa 0,0 mm 13,4 km/h (3 Bft) W 270 0 min -6,7 C 17,3 km/h (3 Bft)
10.02.2016 22:20 0,3 C -0,7 C 58 % 1003,4 hPa 0,0 mm 13,1 km/h (3 Bft) W 270 0 min -7,0 C 22,1 km/h (4 Bft)
10.02.2016 22:25 0,4 C -0,4 C 58 % 1003,7 hPa 0,0 mm 14,3 km/h (3 Bft) NW 315 0 min -6,9 C 15,8 km/h (3 Bft)
10.02.2016 22:30 0,4 C -0,4 C 58 % 1003,7 hPa 0,0 mm 14,9 km/h (3 Bft) W 270 0 min -6,9 C 31,6 km/h (5 Bft)
10.02.2016 22:35 0,3 C -0,7 C 58 % 1003,7 hPa 0,0 mm 12,8 km/h (3 Bft) W 270 0 min -7,0 C 10,1 km/h (2 Bft)
10.02.2016 22:40 0,4 C -0,6 C 58 % 1003,7 hPa 0,0 mm 12,8 km/h (3 Bft) W 270 0 min -6,9 C 15,5 km/h (3 Bft)
10.02.2016 22:45 0,2 C -0,8 C 58 % 1003,7 hPa 0,0 mm 11,3 km/h (2 Bft) S-SW 202 0 min -7,1 C 15,8 km/h (3 Bft)
10.02.2016 22:50 0,2 C -0,6 C 58 % 1003,7 hPa 0,0 mm 9,8 km/h (2 Bft) SW 225 0 min -7,1 C 13,1 km/h (3 Bft)
10.02.2016 22:55 0,2 C -0,6 C 58 % 1003,7 hPa 0,0 mm 10,1 km/h (2 Bft) W-SW 247 0 min -7,1 C 8,0 km/h (2 Bft)
10.02.2016 23:00 0,1 C -0,7 C 58 % 1003,7 hPa 0,0 mm 9,8 km/h (2 Bft) W 270 0 min -7,2 C 9,2 km/h (2 Bft)
10.02.2016 23:05 -0,1 C -0,8 C 58 % 1003,8 hPa 0,0 mm 8,6 km/h (2 Bft) W-SW 247 0 min -7,3 C 16,1 km/h (3 Bft)
10.02.2016 23:07 -0,1 C -1,1 C 58 % 1003,8 hPa 0,0 mm 10,4 km/h (2 Bft) W-SW 247 0 min -7,3 C 21,2 km/h (4 Bft)
10.02.2016 23:08 -0,1 C -1,1 C 58 % 1003,8 hPa 0,0 mm 10,4 km/h (2 Bft) W-SW 247 0 min -7,3 C 21,2 km/h (4 Bft)
10.02.2016 23:10 -0,1 C -1,1 C 58 % 1003,8 hPa 0,0 mm 10,4 km/h (2 Bft) W-SW 247 0 min -7,3 C 21,2 km/h (4 Bft)
10.02.2016 23:15 -0,2 C -1,3 C 58 % 1003,8 hPa 0,0 mm 12,5 km/h (3 Bft) W-SW 247 0 min -7,4 C 19,1 km/h (3 Bft)
10.02.2016 23:20 -0,2 C -1,3 C 58 % 1003,8 hPa 0,0 mm 12,2 km/h (2 Bft) S 180 0 min -7,4 C 11,6 km/h (2 Bft)
10.02.2016 23:25 -0,2 C -1,4 C 58 % 1004,0 hPa 0,0 mm 13,4 km/h (3 Bft) W 270 0 min -7,4 C 20,9 km/h (4 Bft)
10.02.2016 23:30 0,2 C -1,1 C 58 % 1004,0 hPa 0,0 mm 14,0 km/h (3 Bft) W-NW 292 0 min -7,1 C 18,8 km/h (3 Bft)
10.02.2016 23:35 0,1 C -0,9 C 58 % 1004,0 hPa 0,0 mm 11,9 km/h (2 Bft) W-SW 247 0 min -7,2 C 11,9 km/h (2 Bft)
10.02.2016 23:40 0,1 C -1,0 C 58 % 1004,0 hPa 0,0 mm 12,2 km/h (2 Bft) W 270 0 min -7,2 C 17,3 km/h (3 Bft)
10.02.2016 23:45 0,0 C -0,9 C 57 % 1003,9 hPa 0,0 mm 14,3 km/h (3 Bft) W-SW 247 0 min -7,5 C 21,2 km/h (4 Bft)
10.02.2016 23:50 0,0 C -1,0 C 57 % 1003,9 hPa 0,0 mm 15,2 km/h (3 Bft) W-SW 247 0 min -7,5 C 36,4 km/h (5 Bft)
10.02.2016 23:55 -0,1 C -1,1 C 57 % 1003,9 hPa 0,0 mm 14,6 km/h (3 Bft) W-SW 247 0 min -7,6 C 15,5 km/h (3 Bft)
_ Min-Zeit 07:10 07:10 23:55 00:20 - 06:40 - - - 23:55 06:33
Minimum _ -1,4 C -2,4 C 57 % 994,3 hPa - 8,3 km/h (2 Bft) - - - -7,6 C 6,0 km/h (2 Bft)
_ Max-Zeit 14:15 14:20 06:33 23:40 12:00 02:05 - - 14:20 00:05 00:55
Maximum _ 2,4 C 4,4 C 82 % 1004,0 hPa 0,7 mm 31,9 km/h
W-SW (5 Bft)
- - 5 min -1,0 C 76,1 km/h
NW (9 Bft)
Durchschnitt _ 0,1 C -0,4 C 70 % 999,4 hPa #0,7 mm 16,8 km/h (3 Bft) W - #20 min. -4,8 C 22,2 km/h (4 Bft)